GFSFLT1_prec_pwat_132.txt.gz
Precipitable_Water
1.35 1.30 1.20 1.21 1.22 1.20 1.26 1.30 1.42 1.47 1.49 1.45 1.44 1.49 1.60 1.61 1.53 1.55 1.56 1.55 1.52 1.53 1.79 1.76 1.89 1.96 1.71 1.72 1.73 1.67 1.68 1.57 1.54
1.42 1.29 1.36 1.30 1.36 1.25 1.30 1.38 1.39 1.49 1.44 1.51 1.50 1.45 1.55 1.57 1.58 1.59 1.57 1.63 1.60 1.70 1.72 1.97 1.63 1.69 1.93 1.78 1.80 1.80 1.66 1.58 1.46
1.46 1.35 1.44 1.25 1.26 1.30 1.35 1.42 1.46 1.45 1.46 1.47 1.47 1.47 1.49 1.51 1.58 1.64 1.65 1.78 1.77 1.97 1.95 1.84 2.42 1.99 1.96 1.88 1.83 1.82 1.82 1.74 1.69
1.38 1.45 1.48 1.36 1.31 1.33 1.36 1.37 1.42 1.45 1.45 1.54 1.55 1.52 1.53 1.47 1.51 1.64 1.74 1.86 2.04 1.94 1.95 1.95 2.00 1.96 1.89 1.86 1.83 1.84 1.81 1.86 1.83
1.46 1.60 1.63 1.67 1.46 1.40 1.32 1.32 1.33 1.52 1.44 1.46 1.55 1.60 1.54 1.51 1.55 1.61 1.67 1.72 1.84 2.00 1.88 1.99 1.99 1.97 1.87 1.89 1.77 1.78 1.68 1.69 1.82
1.41 1.58 1.66 1.67 1.57 1.51 1.41 1.40 1.38 1.46 1.64 1.40 1.51 1.62 1.57 1.50 1.46 1.53 1.65 1.87 1.80 1.86 2.01 2.02 1.92 1.95 2.02 1.94 1.90 1.88 1.73 1.66 1.64
1.31 1.43 1.52 1.69 1.66 1.67 1.74 1.53 1.52 1.47 2.05 2.00 1.62 1.62 1.60 1.55 1.59 1.52 1.44 1.44 1.61 1.68 1.67 1.69 1.74 1.72 1.74 1.74 1.76 1.67 1.67 1.58 1.55
1.21 1.30 1.51 1.59 1.80 1.87 1.76 1.96 1.73 1.57 1.65 1.57 2.09 1.71 1.66 1.67 1.68 1.68 1.58 1.58 1.57 1.59 1.57 1.55 1.59 1.62 1.65 1.65 1.63 1.63 1.73 1.73 1.58
1.19 1.29 1.45 1.55 1.68 1.49 1.72 1.85 1.77 1.80 1.72 1.85 1.75 1.68 1.80 1.91 1.83 1.79 1.78 1.76 1.83 1.83 1.79 1.77 1.79 1.79 1.85 1.76 1.77 1.83 1.92 1.98 1.89
1.19 1.26 1.41 1.57 1.64 1.72 1.77 1.84 1.91 1.90 1.95 2.03 1.85 1.80 1.81 1.82 1.82 1.81 1.91 1.93 1.86 1.84 1.85 1.82 1.83 1.85 1.94 1.91 1.98 1.93 2.05 2.00 1.97
1.21 1.29 1.41 1.52 1.60 1.61 1.64 1.79 1.81 1.98 2.07 2.03 1.98 1.91 1.82 1.86 1.86 1.83 1.95 2.01 1.84 1.83 1.85 1.82 1.92 1.93 1.94 2.05 2.11 2.15 2.12 2.04 2.00
1.23 1.26 1.36 1.42 1.55 1.65 1.62 1.62 1.76 1.78 1.95 2.02 1.99 1.96 1.98 1.97 1.95 1.95 2.02 1.98 2.02 1.98 1.95 1.98 2.03 2.05 2.06 2.12 2.17 2.16 2.10 2.10 2.09
1.30 1.33 1.35 1.36 1.45 1.55 1.60 1.63 1.69 1.70 1.84 1.82 1.81 1.96 1.88 1.90 1.99 2.03 2.05 2.10 2.07 2.14 2.09 1.90 1.91 1.82 1.90 2.03 1.98 2.05 2.06 2.10 2.10
1.27 1.34 1.39 1.45 1.42 1.44 1.51 1.61 1.69 1.71 1.79 1.84 1.93 2.00 1.93 1.96 2.01 2.02 2.02 2.00 1.97 1.89 1.80 1.78 1.74 1.76 1.81 1.95 1.95 1.93 1.97 2.00 2.00
1.20 1.23 1.31 1.37 1.36 1.42 1.56 1.63 1.63 1.62 1.65 1.81 1.87 1.85 1.82 1.82 1.86 1.82 1.75 1.72 1.72 1.75 1.77 1.78 1.80 1.81 1.79 1.81 1.81 1.88 1.92 1.92 1.96
1.22 1.25 1.25 1.29 1.27 1.32 1.43 1.51 1.55 1.50 1.59 1.71 1.72 1.62 1.61 1.61 1.67 1.72 1.77 1.71 1.64 1.59 1.61 1.54 1.47 1.45 1.50 1.53 1.66 1.72 1.74 1.75 1.76
1.14 1.19 1.23 1.30 1.26 1.19 1.23 1.33 1.36 1.40 1.44 1.52 1.52 1.48 1.47 1.48 1.52 1.59 1.62 1.59 1.57 1.55 1.50 1.43 1.38 1.41 1.46 1.47 1.49 1.52 1.55 1.60 1.63
1.10 1.13 1.19 1.26 1.26 1.16 1.16 1.27 1.31 1.35 1.41 1.43 1.39 1.40 1.40 1.41 1.44 1.46 1.45 1.50 1.52 1.53 1.52 1.48 1.43 1.44 1.45 1.42 1.38 1.42 1.53 1.55 1.52
1.04 1.07 1.09 1.13 1.19 1.20 1.16 1.16 1.23 1.32 1.37 1.38 1.34 1.30 1.34 1.37 1.40 1.41 1.38 1.36 1.37 1.45 1.44 1.43 1.43 1.44 1.42 1.41 1.42 1.38 1.35 1.38 1.38
1.01 1.01 1.03 1.03 1.07 1.19 1.18 1.18 1.20 1.21 1.15 1.21 1.18 1.14 1.14 1.15 1.22 1.26 1.26 1.24 1.23 1.19 1.28 1.31 1.30 1.29 1.27 1.24 1.17 1.11 1.05 0.97 0.91

GFSFLT1_prec_pwat_135.txt.gz
Precipitable_Water
1.30 1.23 1.29 1.31 1.36 1.39 1.33 1.30 1.33 1.36 1.38 1.30 1.30 1.39 1.48 1.50 1.56 1.54 1.73 1.62 1.64 1.55 1.54 1.62 1.79 1.80 1.91 1.75 1.82 1.79 1.74 1.64 1.60
1.47 1.46 1.36 1.43 1.39 1.57 1.40 1.35 1.33 1.31 1.37 1.42 1.34 1.27 1.38 1.55 1.54 1.46 1.53 1.57 1.58 1.59 1.71 1.74 1.89 1.80 1.72 1.83 1.89 1.90 1.90 1.72 1.62
1.53 1.64 1.56 1.51 1.40 1.39 1.45 1.43 1.43 1.44 1.45 1.39 1.34 1.38 1.37 1.47 1.55 1.51 1.57 1.70 1.68 1.65 1.72 1.85 1.86 1.78 1.89 1.92 1.96 1.97 1.92 1.87 1.92
1.51 1.45 1.49 1.66 1.46 1.68 1.51 1.52 1.47 1.43 1.44 1.39 1.35 1.29 1.32 1.37 1.43 1.52 1.61 1.70 1.80 1.93 2.01 1.93 1.75 1.95 1.90 1.83 1.82 1.84 1.81 1.88 1.82
1.43 1.39 1.72 1.65 1.62 1.53 1.56 1.50 1.53 1.48 1.46 1.40 1.39 1.33 1.31 1.37 1.39 1.44 1.55 1.65 1.81 1.90 1.93 1.95 1.95 2.00 1.95 1.90 1.90 1.89 1.75 1.59 1.56
1.37 1.57 1.62 1.67 1.71 1.60 1.67 1.86 1.63 1.55 1.50 1.45 1.54 1.47 1.44 1.44 1.43 1.43 1.48 1.59 1.66 1.78 1.82 1.88 1.95 2.00 1.90 1.93 1.92 1.77 1.77 1.71 1.58
1.27 1.49 1.55 1.62 1.71 1.66 1.82 1.77 1.67 1.80 1.63 1.61 1.56 1.55 1.51 1.47 1.40 1.36 1.37 1.52 1.66 1.69 1.71 1.70 1.68 1.69 1.68 1.61 1.59 1.56 1.56 1.62 1.64
1.34 1.31 1.52 1.59 1.62 1.66 1.75 1.79 1.79 2.02 1.74 1.63 1.69 1.71 1.72 1.45 1.50 1.53 1.50 1.46 1.46 1.53 1.54 1.56 1.53 1.53 1.67 1.78 1.79 1.75 1.76 1.75 1.79
1.26 1.32 1.35 1.54 1.63 1.66 1.70 1.66 1.67 2.03 1.92 1.75 1.43 1.66 1.95 1.63 1.62 1.63 1.59 1.58 1.54 1.59 1.67 1.73 1.78 1.77 1.79 1.79 1.83 1.95 1.97 1.93 1.82
1.16 1.34 1.38 1.40 1.40 1.51 1.65 1.68 1.77 1.97 2.14 1.98 1.66 1.80 2.00 2.00 1.87 1.84 1.76 1.81 1.82 1.84 1.86 1.95 1.91 1.90 1.91 1.87 1.96 1.98 1.99 2.07 2.05
1.24 1.35 1.43 1.52 1.52 1.45 1.54 1.77 1.84 1.90 2.14 2.14 2.14 1.87 2.16 2.04 1.89 1.84 1.85 1.85 1.81 1.89 1.96 1.93 1.85 1.88 1.90 1.93 1.99 2.03 2.01 2.06 2.09
1.21 1.37 1.49 1.58 1.61 1.57 1.60 1.66 1.76 1.79 1.85 1.97 1.99 2.01 2.03 2.00 1.99 1.95 1.95 1.89 1.80 1.83 1.94 2.01 1.96 1.92 1.92 1.92 1.95 1.98 2.04 2.10 2.08
1.27 1.35 1.40 1.49 1.54 1.56 1.57 1.56 1.65 1.71 1.71 1.91 1.97 1.94 1.91 1.91 1.92 1.91 1.92 1.94 1.93 1.97 2.05 2.05 2.02 1.99 1.90 1.77 1.75 1.82 1.87 1.97 1.98
1.33 1.38 1.43 1.49 1.48 1.51 1.56 1.65 1.63 1.60 1.75 1.78 1.90 2.02 1.92 1.90 1.98 1.99 2.02 2.06 2.04 1.96 1.86 1.81 1.77 1.75 1.76 1.79 1.80 1.79 1.85 1.88 1.86
1.18 1.29 1.35 1.43 1.44 1.47 1.58 1.59 1.58 1.59 1.71 1.83 1.92 1.95 1.95 1.91 1.92 1.95 1.94 1.84 1.73 1.71 1.66 1.65 1.66 1.69 1.70 1.69 1.68 1.72 1.76 1.81 1.79
1.14 1.22 1.23 1.25 1.29 1.40 1.52 1.62 1.65 1.58 1.65 1.77 1.80 1.82 1.76 1.76 1.73 1.71 1.71 1.67 1.69 1.64 1.62 1.54 1.46 1.40 1.40 1.46 1.55 1.59 1.62 1.64 1.66
1.05 1.12 1.20 1.27 1.23 1.22 1.30 1.45 1.54 1.59 1.63 1.60 1.64 1.59 1.56 1.57 1.51 1.49 1.53 1.61 1.64 1.57 1.53 1.46 1.42 1.35 1.33 1.36 1.41 1.45 1.48 1.49 1.50
1.00 1.08 1.15 1.20 1.20 1.21 1.23 1.35 1.38 1.42 1.47 1.47 1.41 1.41 1.44 1.45 1.46 1.45 1.44 1.45 1.46 1.48 1.51 1.48 1.43 1.42 1.38 1.32 1.31 1.36 1.41 1.41 1.38
1.01 1.01 1.09 1.12 1.15 1.17 1.24 1.32 1.28 1.33 1.41 1.42 1.38 1.36 1.37 1.38 1.39 1.41 1.42 1.40 1.38 1.43 1.42 1.42 1.43 1.44 1.42 1.39 1.35 1.33 1.31 1.26 1.19
0.96 0.97 1.02 1.06 1.05 1.09 1.18 1.16 1.18 1.32 1.35 1.32 1.33 1.32 1.33 1.33 1.32 1.33 1.29 1.30 1.28 1.22 1.27 1.30 1.29 1.30 1.25 1.18 1.10 0.99 0.92 0.90 0.90

GFSFLT1_prec_pwat_138.txt.gz
Precipitable_Water
1.37 1.37 1.41 1.32 1.32 1.40 1.47 1.45 1.43 1.47 1.46 1.29 1.44 1.43 1.42 1.53 1.57 1.51 1.55 1.62 1.62 1.49 1.52 1.52 1.56 1.56 1.70 1.78 1.65 1.65 1.63 1.57 1.52
1.42 1.37 1.34 1.40 1.44 1.40 1.43 1.52 1.45 1.47 1.50 1.43 1.34 1.40 1.45 1.47 1.59 1.49 1.66 1.62 1.64 1.59 1.66 1.70 1.82 1.90 1.78 1.66 1.73 1.77 1.79 1.73 1.58
1.37 1.38 1.42 1.49 1.47 1.49 1.50 1.58 1.54 1.56 1.57 1.49 1.43 1.32 1.32 1.38 1.44 1.50 1.55 1.69 1.58 1.63 1.65 1.75 1.92 1.79 1.73 1.69 1.83 1.85 1.84 1.80 1.81
1.48 1.50 1.54 1.57 1.53 1.64 1.63 1.59 1.53 1.57 1.59 1.54 1.50 1.43 1.36 1.34 1.42 1.53 1.49 1.63 1.70 1.72 1.70 1.85 1.90 1.78 1.77 1.79 1.82 1.79 1.71 1.73 1.72
1.46 1.67 1.62 1.63 1.66 1.78 1.58 1.55 1.52 1.64 1.63 1.57 1.54 1.49 1.40 1.33 1.37 1.44 1.49 1.55 1.65 1.81 1.89 1.98 1.96 1.86 1.92 1.82 1.77 1.84 1.74 1.63 1.55
1.39 1.54 1.68 1.69 1.80 1.73 1.61 1.64 1.63 1.62 1.63 1.65 1.64 1.53 1.38 1.29 1.27 1.29 1.33 1.46 1.64 1.80 1.83 1.92 1.94 1.93 1.91 1.89 1.94 1.84 1.80 1.76 1.63
1.38 1.44 1.54 1.68 1.70 1.77 1.72 1.74 1.71 1.77 1.74 1.87 1.68 1.58 1.46 1.28 1.29 1.35 1.38 1.46 1.56 1.67 1.82 1.82 1.85 1.86 1.84 1.78 1.70 1.64 1.58 1.57 1.61
1.22 1.37 1.44 1.68 1.75 1.75 1.76 1.80 1.82 1.89 1.91 2.00 1.98 1.68 1.55 1.40 1.38 1.37 1.38 1.43 1.50 1.59 1.63 1.64 1.62 1.57 1.59 1.66 1.74 1.84 1.83 1.87 1.84
1.13 1.24 1.40 1.59 1.76 1.81 1.78 1.85 1.85 1.98 1.99 1.96 2.12 2.02 1.72 1.64 1.51 1.50 1.42 1.37 1.42 1.48 1.51 1.62 1.68 1.72 1.78 1.78 1.88 1.93 2.00 1.96 1.92
1.05 1.19 1.33 1.47 1.59 1.57 1.65 1.83 1.91 1.86 1.88 1.97 2.08 2.08 1.93 1.83 1.79 1.67 1.55 1.54 1.51 1.52 1.57 1.71 1.78 1.88 1.95 1.96 1.97 1.95 1.97 2.04 2.01
1.05 1.20 1.28 1.40 1.45 1.38 1.51 1.75 1.85 1.88 1.88 1.80 1.96 1.91 2.05 1.77 1.92 1.94 1.92 1.85 1.76 1.82 1.89 1.90 1.93 1.95 1.97 1.94 1.93 1.93 2.00 2.10 2.08
1.05 1.15 1.29 1.40 1.53 1.48 1.49 1.47 1.67 1.78 1.80 1.88 1.89 1.82 1.99 1.75 2.00 2.00 2.07 1.98 1.88 1.98 2.00 1.89 1.89 1.94 1.97 1.98 1.96 1.99 2.06 2.06 2.01
0.99 1.17 1.25 1.35 1.47 1.50 1.50 1.52 1.56 1.63 1.66 1.79 1.92 1.92 2.08 2.04 2.00 1.98 2.03 2.01 2.08 2.08 2.01 1.89 1.93 1.93 2.05 2.07 2.04 2.01 1.98 1.91 1.86
1.01 1.15 1.25 1.33 1.34 1.35 1.45 1.58 1.59 1.62 1.69 1.68 1.82 2.00 2.17 2.14 2.13 2.13 2.10 2.04 2.02 1.99 1.94 1.94 1.97 1.91 1.85 1.82 1.85 1.89 1.93 1.92 1.92
0.97 1.16 1.24 1.31 1.33 1.36 1.47 1.56 1.53 1.48 1.53 1.74 1.83 1.88 1.92 1.95 2.00 1.99 2.00 2.01 1.99 1.98 1.87 1.74 1.70 1.71 1.69 1.70 1.71 1.74 1.74 1.74 1.82
0.82 1.00 1.17 1.29 1.29 1.35 1.43 1.51 1.56 1.53 1.65 1.81 1.82 1.92 1.92 1.76 1.86 1.83 1.80 1.77 1.75 1.70 1.74 1.69 1.60 1.49 1.41 1.43 1.51 1.57 1.61 1.63 1.65
0.88 1.00 1.10 1.17 1.18 1.20 1.28 1.39 1.50 1.62 1.66 1.74 1.76 1.73 1.74 1.67 1.68 1.60 1.57 1.58 1.64 1.66 1.63 1.55 1.49 1.43 1.41 1.40 1.41 1.40 1.42 1.43 1.47
0.92 0.97 1.08 1.16 1.15 1.17 1.22 1.31 1.36 1.46 1.54 1.57 1.52 1.56 1.56 1.56 1.53 1.48 1.46 1.45 1.48 1.50 1.51 1.53 1.48 1.45 1.41 1.35 1.34 1.37 1.39 1.37 1.35
1.03 1.00 1.01 1.03 1.08 1.14 1.16 1.27 1.31 1.35 1.40 1.41 1.38 1.34 1.36 1.41 1.44 1.41 1.41 1.42 1.43 1.52 1.53 1.53 1.52 1.49 1.42 1.38 1.36 1.33 1.28 1.22 1.17
1.17 1.11 1.00 0.98 1.00 1.04 1.07 1.16 1.28 1.35 1.38 1.38 1.37 1.36 1.36 1.37 1.39 1.37 1.34 1.33 1.31 1.24 1.34 1.39 1.38 1.33 1.29 1.25 1.14 1.02 0.97 0.94 0.93

GFSFLT1_prec_pwat_141.txt.gz
Precipitable_Water
1.40 1.46 1.51 1.48 1.46 1.42 1.43 1.44 1.48 1.47 1.46 1.43 1.47 1.47 1.40 1.43 1.50 1.45 1.47 1.51 1.45 1.42 1.40 1.45 1.54 1.59 1.57 1.59 1.65 1.57 1.65 1.63 1.58
1.39 1.49 1.49 1.46 1.52 1.45 1.46 1.45 1.46 1.47 1.44 1.45 1.38 1.44 1.47 1.42 1.46 1.46 1.47 1.55 1.66 1.51 1.53 1.62 1.65 1.68 1.71 1.76 1.70 1.70 1.72 1.73 1.70
1.39 1.54 1.53 1.52 1.56 1.42 1.41 1.49 1.50 1.55 1.54 1.46 1.42 1.35 1.41 1.43 1.42 1.46 1.43 1.56 1.48 1.57 1.63 1.75 1.76 1.77 1.82 1.78 1.77 1.79 1.83 1.82 1.85
1.40 1.52 1.54 1.47 1.45 1.52 1.47 1.49 1.56 1.54 1.58 1.54 1.51 1.42 1.34 1.35 1.42 1.46 1.48 1.42 1.54 1.53 1.65 1.69 1.82 1.93 1.80 1.77 1.68 1.81 1.80 1.76 1.80
1.30 1.50 1.59 1.66 1.57 1.58 1.53 1.52 1.54 1.55 1.58 1.67 1.58 1.54 1.42 1.34 1.32 1.43 1.51 1.43 1.51 1.70 1.67 1.73 1.87 1.92 1.83 1.78 1.81 1.77 1.67 1.65 1.66
1.21 1.41 1.48 1.57 1.53 1.63 1.61 1.62 1.65 1.66 1.58 1.72 1.58 1.65 1.55 1.43 1.36 1.36 1.37 1.48 1.56 1.64 1.73 1.87 1.90 1.96 1.88 1.88 1.87 1.86 1.92 1.88 1.79
1.27 1.45 1.44 1.53 1.62 1.66 1.71 1.72 1.73 1.66 1.64 1.71 1.71 1.64 1.63 1.53 1.38 1.31 1.35 1.38 1.49 1.60 1.71 1.78 1.84 1.88 1.88 1.89 1.91 1.92 1.85 1.70 1.55
1.19 1.29 1.39 1.48 1.61 1.67 1.66 1.80 1.76 1.70 1.79 1.83 1.73 1.88 1.66 1.61 1.60 1.39 1.38 1.41 1.43 1.53 1.63 1.68 1.76 1.75 1.78 1.82 1.75 1.70 1.59 1.60 1.66
1.11 1.27 1.37 1.46 1.63 1.72 1.75 1.81 1.79 1.86 1.89 1.87 1.90 1.90 1.77 1.74 1.63 1.48 1.43 1.41 1.40 1.45 1.51 1.57 1.62 1.60 1.54 1.50 1.53 1.68 1.82 1.89 1.93
1.00 1.08 1.25 1.36 1.55 1.76 1.82 1.83 1.94 1.81 1.96 1.96 1.99 1.96 2.05 2.04 1.88 1.63 1.54 1.46 1.38 1.34 1.39 1.53 1.49 1.48 1.55 1.62 1.76 1.87 1.93 1.95 1.94
0.88 1.09 1.20 1.40 1.47 1.53 1.52 1.62 1.79 1.87 1.98 1.97 1.96 1.97 2.00 2.07 1.99 1.91 1.85 1.80 1.56 1.45 1.43 1.50 1.62 1.70 1.74 1.81 1.90 1.99 2.02 1.96 1.96
0.88 1.02 1.27 1.40 1.55 1.58 1.59 1.55 1.62 1.74 1.83 1.87 1.85 1.88 1.87 1.98 2.12 1.94 1.91 1.96 1.85 1.71 1.67 1.70 1.73 1.87 2.00 1.97 1.94 2.00 1.96 2.01 2.00
0.93 1.01 1.18 1.38 1.53 1.56 1.56 1.51 1.52 1.54 1.67 1.71 1.72 1.84 1.80 1.94 1.96 1.87 2.04 2.16 2.08 2.03 2.03 2.01 2.03 1.98 2.01 1.94 1.88 1.95 2.02 2.08 2.09
0.93 1.08 1.20 1.35 1.45 1.52 1.63 1.66 1.61 1.51 1.53 1.58 1.75 1.94 2.01 1.99 2.00 1.97 2.05 2.01 2.15 2.15 2.09 2.10 2.04 1.97 1.96 1.93 1.93 1.92 1.94 1.95 1.91
0.85 0.94 1.11 1.31 1.35 1.40 1.52 1.59 1.58 1.49 1.48 1.67 1.68 1.77 1.89 2.04 2.02 2.01 2.06 2.00 2.04 2.04 2.03 1.97 1.91 1.85 1.76 1.74 1.76 1.78 1.78 1.79 1.80
0.82 0.89 0.98 1.18 1.27 1.37 1.48 1.58 1.56 1.48 1.54 1.66 1.69 1.76 1.73 1.70 1.90 1.87 1.86 1.84 1.87 1.78 1.81 1.72 1.68 1.69 1.68 1.60 1.61 1.63 1.65 1.64 1.66
0.84 0.89 1.00 1.06 1.09 1.23 1.31 1.49 1.58 1.60 1.68 1.76 1.79 1.74 1.78 1.66 1.64 1.68 1.77 1.77 1.79 1.76 1.73 1.68 1.63 1.56 1.49 1.49 1.52 1.50 1.52 1.50 1.48
0.93 0.89 0.91 1.03 1.08 1.14 1.19 1.34 1.43 1.53 1.62 1.67 1.66 1.68 1.71 1.68 1.68 1.67 1.64 1.62 1.59 1.60 1.65 1.64 1.57 1.55 1.51 1.44 1.41 1.43 1.44 1.41 1.40
0.94 1.01 1.00 0.97 1.05 1.10 1.16 1.25 1.30 1.37 1.46 1.51 1.51 1.46 1.50 1.49 1.51 1.50 1.53 1.48 1.47 1.54 1.56 1.57 1.55 1.53 1.50 1.46 1.45 1.41 1.38 1.37 1.33
0.92 1.02 1.07 1.00 0.99 1.06 1.10 1.16 1.22 1.33 1.34 1.38 1.39 1.39 1.39 1.40 1.42 1.43 1.44 1.43 1.39 1.36 1.43 1.51 1.49 1.44 1.38 1.35 1.24 1.16 1.10 1.07 1.03

GFSFLT1_prec_pwat_147.txt.gz
Precipitable_Water
1.22 1.28 1.37 1.41 1.38 1.32 1.32 1.34 1.34 1.37 1.41 1.48 1.51 1.45 1.48 1.56 1.60 1.57 1.55 1.55 1.51 1.46 1.52 1.56 1.66 1.72 1.68 1.72 1.68 1.72 1.73 1.59 1.61
1.09 1.29 1.36 1.38 1.47 1.39 1.36 1.35 1.35 1.37 1.38 1.46 1.52 1.49 1.43 1.44 1.49 1.52 1.50 1.56 1.58 1.56 1.64 1.58 1.58 1.62 1.59 1.62 1.63 1.69 1.72 1.70 1.70
1.01 1.20 1.34 1.43 1.51 1.44 1.41 1.43 1.46 1.46 1.47 1.46 1.54 1.55 1.54 1.45 1.47 1.53 1.51 1.54 1.50 1.53 1.59 1.56 1.55 1.54 1.60 1.65 1.71 1.76 1.75 1.74 1.79
0.98 1.16 1.30 1.47 1.53 1.54 1.62 1.55 1.51 1.45 1.44 1.46 1.52 1.58 1.58 1.54 1.46 1.50 1.54 1.50 1.55 1.58 1.62 1.61 1.61 1.67 1.71 1.73 1.79 1.79 1.77 1.79 1.79
0.93 1.04 1.28 1.47 1.59 1.66 1.64 1.63 1.56 1.47 1.43 1.44 1.47 1.55 1.59 1.61 1.57 1.49 1.49 1.49 1.52 1.58 1.53 1.60 1.67 1.78 1.81 1.83 1.85 1.82 1.80 1.76 1.80
0.98 1.07 1.25 1.40 1.54 1.66 1.68 1.70 1.66 1.63 1.54 1.46 1.51 1.53 1.53 1.56 1.59 1.54 1.40 1.45 1.50 1.52 1.58 1.59 1.69 1.75 1.74 1.77 1.81 1.83 1.83 1.89 1.78
0.92 1.03 1.17 1.26 1.39 1.56 1.66 1.71 1.70 1.70 1.64 1.64 1.63 1.58 1.53 1.48 1.50 1.53 1.52 1.44 1.46 1.49 1.54 1.59 1.67 1.81 1.83 1.82 1.86 1.89 1.95 1.88 1.85
0.96 0.96 1.14 1.25 1.26 1.45 1.59 1.68 1.73 1.75 1.69 1.74 1.71 1.64 1.63 1.57 1.60 1.58 1.59 1.57 1.54 1.60 1.57 1.55 1.64 1.72 1.83 1.85 1.88 1.99 1.92 1.93 1.93
0.80 0.84 1.00 1.12 1.25 1.41 1.60 1.76 1.75 1.75 1.74 1.75 1.77 1.68 1.73 1.76 1.75 1.71 1.62 1.63 1.65 1.61 1.62 1.62 1.61 1.67 1.79 1.85 1.89 2.00 1.96 1.96 2.01
0.66 0.70 0.73 0.95 1.18 1.38 1.53 1.64 1.75 1.79 1.80 1.82 1.84 1.82 1.85 1.87 1.81 1.77 1.73 1.66 1.66 1.64 1.61 1.56 1.42 1.53 1.69 1.75 1.82 1.84 1.90 1.95 1.91
0.75 0.74 0.78 0.85 1.09 1.36 1.46 1.61 1.67 1.68 1.80 1.84 1.84 1.81 1.84 1.89 1.86 1.79 1.77 1.74 1.72 1.65 1.70 1.58 1.42 1.49 1.61 1.67 1.72 1.75 1.78 1.80 1.69
0.80 0.82 0.87 0.93 1.02 1.31 1.47 1.56 1.64 1.62 1.73 1.84 1.89 1.81 1.82 1.88 1.88 1.79 1.75 1.83 1.84 1.75 1.73 1.66 1.55 1.48 1.54 1.55 1.58 1.67 1.75 1.69 1.65
0.81 0.84 0.89 0.90 0.95 1.19 1.41 1.51 1.62 1.52 1.56 1.70 1.81 1.88 1.88 1.89 1.82 1.75 1.79 1.94 2.00 2.01 1.96 1.92 1.80 1.55 1.56 1.60 1.57 1.67 1.67 1.69 1.71
0.80 0.82 0.85 0.88 0.92 0.96 1.23 1.48 1.56 1.53 1.52 1.56 1.77 1.89 1.83 1.87 1.83 1.89 1.88 1.93 2.00 2.04 2.07 2.00 1.87 1.68 1.62 1.63 1.73 1.74 1.74 1.80 1.80
0.76 0.76 0.79 0.82 0.80 0.87 1.16 1.37 1.49 1.53 1.57 1.66 1.71 1.70 1.68 1.68 1.84 1.95 1.96 1.91 1.91 1.93 1.96 1.94 1.84 1.82 1.77 1.80 1.88 1.86 1.85 1.92 1.95
0.70 0.75 0.81 0.87 0.83 0.88 1.02 1.29 1.44 1.47 1.59 1.69 1.67 1.64 1.56 1.60 1.74 1.88 1.96 1.95 1.88 1.88 1.92 1.90 1.89 1.85 1.77 1.72 1.84 1.92 1.93 1.92 1.94
0.72 0.80 0.78 0.85 0.88 0.83 0.92 1.09 1.33 1.46 1.55 1.67 1.65 1.57 1.55 1.63 1.59 1.62 1.74 1.86 1.86 1.78 1.76 1.79 1.77 1.75 1.70 1.73 1.74 1.75 1.80 1.79 1.73
0.78 0.81 0.81 0.85 0.87 0.87 0.84 1.04 1.17 1.37 1.52 1.61 1.62 1.59 1.54 1.55 1.63 1.62 1.63 1.66 1.68 1.64 1.64 1.65 1.59 1.61 1.61 1.57 1.55 1.64 1.72 1.72 1.69
0.86 0.84 0.87 0.87 0.89 0.93 0.94 0.99 1.16 1.24 1.40 1.53 1.58 1.59 1.63 1.61 1.56 1.58 1.61 1.64 1.64 1.69 1.72 1.77 1.78 1.72 1.69 1.69 1.72 1.70 1.68 1.67 1.65
0.87 0.94 0.95 0.93 0.91 0.99 1.05 0.99 1.12 1.25 1.32 1.38 1.43 1.49 1.59 1.62 1.60 1.57 1.55 1.55 1.52 1.44 1.52 1.57 1.55 1.57 1.60 1.60 1.59 1.59 1.58 1.56 1.50